Location: Zagreb
(45.8000°N, 16.0000°E)
Time: 01:26:05
(UTC+02:00)

Transit 2A Rocket - Pass Details

Date: 25 January 2022
Orbit: 592 x 909 km, 66.7° (Epoch: 26 May)

Event Time Altitude Azimuth Distance (km) Brightness Sun altitude
Rises 04:42:10 0° 318° (NW) 3,416 - -28.4°
Reaches altitude 10° 04:45:06 10° 306° (NW) 2,426 - -27.8°
Maximum altitude 04:49:33 25° 253° (WSW) 1,530 - -27.1°
Drops below altitude 10° 04:53:42 10° 198° (SSW) 2,240 - -26.3°
Exits shadow 04:55:51 - 187° (S) 2,937 8.0 -26.0°
Sets 04:56:19 0° 185° (S) 3,099 8.1 -25.9°
